Location: Newark
(51.0500°N, 12.4500°E)
Time: 09:22:06
(UTC+00:00)

Tiros 1 - Pass Details

Date: 24 February 2020
Orbit: 630 x 664 km, 48.4° (Epoch: 06 April)

Event Time Altitude Azimuth Distance (km) Brightness Sun altitude
Rises 06:57:02 0° 277° (W) 2,918 9.9 6.7°
Reaches altitude 10° 07:00:19 10° 253° (WSW) 2,007 9.3 7.1°
Maximum altitude 07:02:45 14° 220° (SW) 1,738 9.3 7.5°
Drops below altitude 10° 07:05:11 10° 188° (S) 2,005 10.0 7.8°
Sets 07:08:28 0° 164° (SSE) 2,912 11.2 8.3°
